Torna al catalogo

STARLINK-34821

AttivoComunicazioniVLEO
NORAD 65199·PAYLOAD·🇺🇸 United States

Lanciato Aug 14, 2025 da Cape Canaveral Space Force Station

Loading…

Prossimi Passaggi (prossime 24 ore)

TLE

AggiornatoSource: CelesTrak SupGP

Epoca: Sep 15, 2026, 03:31 UTC

1 65199C 25176B   26258.14701389  .00067566  00000+0  19954-2 0  2584
2 65199  53.1600 348.4425 0001209  92.4794  47.9246 15.34370885    11

Traccia STARLINK-34821 in tempo reale con AllMySat

Download on the App Store